Regional Weather Roundup
Issued by NWS

Home | Current Version | Previous Version | Graphics & Text | Print | Product List | Glossary On
Versions: 1 2 3 4 5 6 7 8 9 10 11 12 13 14 15 16 17 18 19 20 21 22 23 24 25 26 27 28 29 30 31 32 33 34 35 36 37 38 39 40 41 42 43 44 45 46 47 48 49 50
000
ASUS43 KLMK 072210
RWRKY
KENTUCKY REGIONAL WEATHER ROUNDUP
NATIONAL WEATHER SERVICE LOUISVILLE KY
500 PM EST SUN FEB 07 2016

NOTE "FAIR" INDICATES FEW OR NO CLOUDS BELOW 12,000 FEET
WITH NO SIGNIFICANT WEATHER AND/OR OBSTRUCTIONS TO VISIBILITY.

KYZ001>023-026-027-061>063-070>075-072300-
WESTERN AND SOUTH CENTRAL KENTUCKY

CITY           SKY/WX    TMP DP  RH WIND       PRES   REMARKS
PADUCAH        SUNNY     55  29  36 SW18G26   29.93S
HENDERSON      MOSUNNY   55  27  33 SW16G23   29.90S
OWENSBORO      SUNNY     53  30  41 SW17      29.91F
HOPKINSVILLE   MOSUNNY   55  22  28 SW16G25   29.95F
BOWLING GREEN  SUNNY     54  19  25 SW13      29.96F
GLASGOW        SUNNY     53  21  28 SW8       29.95F
$$

KYZ024-025-028>034-038-045-046-053-072300-
NORTH CENTRAL KENTUCKY

CITY           SKY/WX    TMP DP  RH WIND       PRES   REMARKS
LOUISVILLE/SDF MOSUNNY   55  19  24 SW15      29.90F
LOUISVILLE/LOU SUNNY     54  20  26 S9G22     29.91F
FORT KNOX      SUNNY     53  21  28 SW15      29.90F
$$

KYZ035>037-039>044-047>052-055>060-089>105-072300-
NORTHEAST KENTUCKY

CITY           SKY/WX    TMP DP  RH WIND       PRES   REMARKS
LEXINGTON      CLOUDY    50  20  30 SW13G21   29.93F
COVINGTON      NOT AVBL
FRANKFORT      CLOUDY    52  20  28 S14       29.92F
$$

KYZ054-064>069-076>088-106>120-072300-
SOUTHEAST KENTUCKY

CITY           SKY/WX    TMP DP  RH WIND       PRES   REMARKS
JACKSON        SUNNY     51  21  30 W9        29.95F
LONDON         SUNNY     51  20  29 SW7       29.95F
SOMERSET       CLOUDY    50  21  32 W9        29.97F
MIDDLESBORO    SUNNY     52  22  30 W3        29.96F
MONTICELLO     CLOUDY    52  23  32 W15       29.98F
$$




USA.gov is the U.S. government's official web portal to all federal, state and local government web resources and services.